Regional Weather Roundup
Issued by NWS Grand Forks, ND

Home | Current Version | Previous Version | Text Only | Print | Product List | Glossary On
Versions: 1 2 3 4 5 6 7 8 9 10 11 12 13 14 15 16 17 18 19 20 21 22 23 24 25 26 27 28 29 30 31 32 33 34 35 36 37 38 39 40 41 42 43 44 45 46 47 48 49 50
000
ASUS43 KFGF 261531
RWRFGF
PRAIRIE TO PINES  WEATHER ROUNDUP
NATIONAL WEATHER SERVICE EASTERN NORTH DAKOTA/GRAND FORKS ND
1000 AM CDT MON SEP 26 2016

 **SATELLITE DATA USED TO AUGMENT SKY COVER AT AUTOMATED STATIONS**
 *****  WEATHER ACROSS EASTERN NORTH DAKOTA  *****

CITY           SKY/WX    TMP DP  RH WIND       PRES   REMARKS
GRAND FORKS    SUNNY     55  39  54 W20G28    29.93F
GRAND FRKS AFB SUNNY     55  37  50 NW15G24   29.95F
DEVILS LAKE    SUNNY     50  38  63 W21       30.03F
FARGO          SUNNY     57  38  48 W20G28    29.99S
WAHPETON ARPT  SUNNY     54  36  50 W21G26    30.02F
$$

 ***** WEATHER ACROSS CENTRAL AND WESTERN NORTH DAKOTA  *****

CITY           SKY/WX    TMP DP  RH WIND       PRES   REMARKS
BISMARCK       SUNNY     52  36  54 W12       30.17F
MINOT          SUNNY     54  36  50 W16G22    30.13S
JAMESTOWN      SUNNY     53  39  59 NW15      30.08R
MINOT AFB      SUNNY     52  36  53 NW15G23   30.12S
GARRISON         N/A     52  39  61 NW13      30.16R
WILLISTON      SUNNY     47  38  71 SE3       30.22R
DICKINSON      SUNNY     50  41  71 W12       30.20S
HETTINGER      SUNNY     54  44  69 W5        30.23F
$$

 *****  OTHER AIRPORT OBSERVATIONS IN OUR AREA  *****

CITY           SKY/WX    TMP DP  RH WIND       PRES   REMARKS
WALHALLA       FAIR      54  50  87 NW17G30   29.94R
GRAFTON AIRPOR FAIR      55  41  58 NW21      29.94S
VALLEY CITY AR FAIR      54  37  54 W18G28    30.06F
CANDO          FAIR      52  37  58 NW20      30.05F
CAVALIER APRT  FAIR      54  37  54 NW24      29.92S
GWINNER        FAIR      55  37  50 W20       30.07S
SHEYENNE NWR     N/A     55  37  51 NW13      29.95S
ROLLA          FAIR      52  32  46 NW26      30.05R
 ***** THE ABOVE OBSERVATIONS ARE NON NWS ARE NOT QUALITY
       CONTROLLED AND MAY MIS-REPORT RAIN FOR SNOW...
$$

  *****  WEATHER ACROSS NORTHERN MINNESOTA  *****

CITY           SKY/WX    TMP DP  RH WIND       PRES   REMARKS
FLAG ISLAND    CLOUDY    52  45  76 NW32G40   29.70S
WARROAD        CLOUDY    48  43  81 W15G21    29.78S
ROSEAU         MOSUNNY   52  43  71 W18G24    29.79F
HALLOCK        SUNNY     55  39  54 NW23G30   29.87F
THF RVR FALLS  SUNNY     51  39  63 NW16G29   29.90R
BAUDETTE       CLOUDY    48  44  86 W16       29.73S
WASKISH        DRIZZLE   50  43  76 W18G31    29.78R
CROOKSTON      SUNNY     54  43  66 NW23      29.92F
STEPHEN NDAWN    N/A     54  41  62 W17         N/A
GREENBUSH NDAW   N/A     52  43  71 W17         N/A
$$
  *****  WEATHER ACROSS CENTRAL AND WEST MINNESOTA  *****

CITY           SKY/WX    TMP DP  RH WIND       PRES   REMARKS
FOSSTON        SUNNY     52  37  58 W24       29.90S
BEMIDJI        MOSUNNY   50  38  64 W20       29.85R
PARK RAPIDS    SUNNY     53  37  54 NW22G38   29.89R
ELBOW LAKE     FAIR      53  39  59 NW17G25   30.01F
WADENA         SUNNY     52  39  62 W13G24    29.93R
DETROIT LAKES  SUNNY     54  39  58 NW20G26   29.95S
MOORHEAD       SUNNY     55  39  54 W18G24    29.99F
FERGUS FALLS   SUNNY     54  41  62 W18       30.02S
MORRIS MN      SUNNY     57  37  47 NW21G35   30.01S
STAPLES        SUNNY     54  37  54 NW21G35   29.91S
$$
  *****  WEATHER ELSEWHERE ACROSS MINNESOTA  *****

CITY           SKY/WX    TMP DP  RH WIND       PRES   REMARKS
DULUTH         CLOUDY    51  44  77 NW26G38   29.70S
INTRNTL FALLS  CLOUDY    49  45  86 W16G30    29.66S
ELY            DRIZZLE   46  45  93 W15G26    29.61S
CLOQUET        CLOUDY    52  39  62 W22G33    29.74S
WHEATON        SUNNY     57  39  51 W17G24    30.07R
BRAINERD       CLOUDY    50  39  66 W16G26    29.88S
HIBBING        CLOUDY    47  42  83 W12G22    29.71S
ALEXANDRIA     SUNNY     52  39  61 NW21G28   29.99R
SAINT CLOUD    SUNNY     54  40  59 W21G29    29.93S
MINNEAPOLIS    SUNNY     56  40  55 W13G20    29.93F
$$

  *****  WEATHER ACROSS SOUTH DAKOTA  *****

CITY           SKY/WX    TMP DP  RH WIND       PRES   REMARKS
SIOUX FALLS    MOSUNNY   56  40  55 W13G21    30.16F
BROOKINGS      SUNNY     55  38  52 NW15      30.13S
WATERTOWN      SUNNY     55  38  52 W14       30.11S
HURON          SUNNY     58  40  51 W12       30.16F
SISSETON         N/A     58  36  43 NW17G26   30.06R
ABERDEEN       SUNNY     55  36  48 W15       30.14S
MITCHELL       SUNNY     57  40  52 W10       30.19F
PIERRE         SUNNY     53  39  59 NW5       30.21R
MOBRIDGE       SUNNY     55  40  56 NW7       30.16S
RAPID CITY     SUNNY     61  40  45 W8        30.27F
$$

  *****  SOME WEATHER IN NEARBY STATES *****

CITY           SKY/WX    TMP DP  RH WIND       PRES   REMARKS
GLASGOW MT     SUNNY     45  39  79 W10       30.25S
GREAT FALLS MT CLOUDY    53  42  66 S13       30.30F
CHEYENNE WY    SUNNY     54  35  48 N5        30.44S
SCOTTSBLUFF NE SUNNY     49  40  71 NW8       30.37F
OMAHA NE       SUNNY     60  41  49 NW12      30.24S
DES MOINES IA  SUNNY     61  41  47 NW12      30.16S
DAVENPORT IA   SUNNY     62  40  44 W14G22    30.09R
CHICAGO IL     MOSUNNY   63  45  51 W18       29.99S
EAU CLAIRE WI  MOSUNNY   57  41  55 W20G25    29.87S
LA CROSSE WI   SUNNY     61  43  51 W15       29.94F
$$

  *****  SOME NATIONAL WEATHER *****

CITY           SKY/WX    TMP DP  RH WIND       PRES   REMARKS
LA GUARDIA NY  PTSUNNY   69  46  43 E8        30.17F
RALEIGH NC     CLOUDY    68  61  78 VRB3      30.16R
ATLANTA GA     MOSUNNY   80  67  64 SE10      30.10S
NEW ORLEANS LA MOSUNNY   86  75  69 N7        30.03R HX  95
OKLAHOMA CITY  PTSUNNY   64  47  53 N12       30.29R
ALBUQUERQUE NM CLOUDY    56  34  43 N5        30.47F
SALT LAKE CITY SUNNY     54  45  71 SE8       30.42S
LOS ANGELES CA MOSUNNY   82  27  13 E3        29.94R
BOISE ID       SUNNY     59  40  49 SE10      30.33S
SEATTLE WA     PTCLDY    55  52  89 N5        30.13F
$$

*** WEATHER ACROSS MANITOBA...SASKATCHEWAN AND ONTARIO ***
                ***ONTARIO***

CITY           SKY/WX    TMP DP  RH WIND       PRES   REMARKS
GERALDTON      PTSUNNY   55  54  94 S10       29.44F
THUNDER BAY    LGT RAIN  54  52  94 W13G18    29.44F
SIOUX LOOKOUT  LGT RAIN  50  48  93 NW16G23   29.47S FOG
TORONTO        CLOUDY    64  54  68 SE8       29.87F
BIG TROUT LK   CLOUDY    55  54  94 SE3       29.43S
PICKLE LAKE    DRIZZLE   54  54 100 SE7       29.38F FOG
DRYDEN         LGT RAIN  48  46  93 W17G24    29.53F
KENORA         LGT RAIN  48  46  93 NW15G29   29.64S FOG
$$
                *** MANITOBA***

CITY           SKY/WX    TMP DP  RH WIND       PRES   REMARKS
BRANDON        SUNNY     50  37  62 W21       30.01S
DAUPHIN        SUNNY     52  37  58 W13       29.98S
ISLAND LAKE    LGT RAIN  48  48 100 NW22G31   29.62R
PILOT MOUND      N/A     48  37  66 NW16G24     N/A
THE PAS        CLOUDY    48  41  76 NW17      29.98S
THOMPSON       LGT RAIN  50  46  87 NW16      29.81R
WINNIPEG       MOSUNNY   54  45  71 NW31G40   29.85S
LYNN LAKE      CLOUDY    48  43  81 N13G22    29.94S
CHURCHILL      CLOUDY    45  43  93 N24G30    29.67R
GILLAM         DRIZZLE   48  45  87 N20G26    29.67R
$$
                ***SASKATCHEWAN***

CITY           SKY/WX    TMP DP  RH WIND       PRES   REMARKS
ESTEVAN        NOT AVBL
KINDERSLEY     MOSUNNY   45  37  76 S2        30.19S
LLOYDMINSTER   MOSUNNY   48  37  66 S2        30.14
PRINCE ALBERT  MOSUNNY   43  36  75 W3        30.14F
REGINA         SUNNY     45  37  76 W6        30.18S
YORKTON        SUNNY     48  37  66 NW17      30.10S
N. BATTLEFORD  SUNNY     46  36  66 CALM      30.19S
LA RONGE       SUNNY     46  37  71 W7        30.11R
SASKATOON      SUNNY     43  37  81 W5        30.18S
SWIFT CURRENT  SUNNY     50  36  57 W10       30.20R
$$
NOTE: THESE ARE AUTOMATED STATIONS WITH LIMITED QUALITY CONTROL
      "FAIR" INDICATES FEW OR NO CLOUDS BELOW 12,000 FEET WITH NO
      SIGNIFICANT WEATHER AND/OR OBSTRUCTIONS TO VISIBILITY.
      SKY/WX - SKY CONDITION AND SIGNIFICANT WEATHER.
      TMP - AIR TEMPERATURE.    DP   - DEWPOINT TEMPERATURE.
      RH  - RELATIVE HUMIDITY.  PRES - PRESSURE.
      HX  - HEAT INDEX.         WCI  - WIND CHILL INDEX.
$



USA.gov is the U.S. government's official web portal to all federal, state and local government web resources and services.